www.pogodaiklimat.ru

Погода и климат >> Архив погоды >> Россия >> Краснодарский край >> Сочи аэропорт (Адлер)


ПОГОДА в Сочи аэропорт (Адлере)

  • Прогноз погоды в Сочи аэропорт (Адлере)
  • Монитор погоды в Сочи аэропорт (Адлере)

АРХИВ ПОГОДЫ в Сочи аэропорт (Адлере)

Время (UTC), дата Ветер
(напр.,м/с)
 
Видим.   Явления Облачность Т
(С)
Тd
(С)
f
(%)
Тe
(С)
Тes
(С)
Комфортность P
(гПа)
Po
(гПа)
Тmin
(С)
Tmax
(С)
R
(мм)
R24
(мм)
S
(см)
06 15.09 СВ 4 20 км 9/3 1500 м
[Cu Sc Ac trans Ci fib]
+22.0 +13.7 59 +25 +26 комфорт 1019.0 1017.3
09 15.09 Ю 3 20 км 10/4 600 м
[Cu med, cong Ci fib]
+24.4 +17.7 66 +28 +33 душно 1019.1 1017.4
12 15.09 ЮВ 3 20 км 10/3 840 м
[Cu med, cong Ci fib]
+25.0 +17.4 63 +29 +32 душно 1018.9 1017.2
15 15.09 ЮВ 3 20 км 10/3 600 м
[Cu med, cong Ac trans Ci fib]
+23.1 +18.4 75 +29 +29 очень
душно
1019.6 1017.9 +25.7
18 15.09 штиль 0 4000 м 9/0
[Ci fib]
+20.6 +18.2 86 +24 +24 комфорт 1019.6 1017.8
21 15.09 СВ 4 4000 м ясно +18.7 +16.7 88 +20 +20 1019.1 1017.3
00 16.09 штиль 0 4000 м ясно +18.2 +16.0 87 +19 +19 1018.3 1016.5
03 16.09 СВ 2 20 км ясно +16.6 +13.4 81 +17 +17 1016.4 1014.6 +16.4
06 16.09 В 2 20 км ясно +22.4 +13.6 57 +25 +30 комфорт 1016.4 1014.7
09 16.09 З 5 20 км ясно +24.2 +17.3 65 +28 +34 душно 1014.5 1012.8
12 16.09 З 5 20 км 1/1 1000 м
[Cu med, cong]
+24.6 +17.9 66 +29 +32 душно 1014.2 1012.5
15 16.09 З 3 20 км 6/3 1500 м
[Sc Ci fib]
+23.6 +17.1 67 +27 +27 жарко 1013.7 1012.0 +25.7
18 16.09 СВ 2 4000 м 9/3 1500 м
[Sc Ac trans]
+21.0 +18.1 84 +26 +26 душно 1014.6 1012.8
21 16.09 В 3 4000 м 10/3 1500 м
[Sc Ac und]
+20.8 +17.2 80 +25 +25 комфорт 1014.4 1012.6
00 17.09 В 3 4000 м 10/8 750 м
[Sc Ac und]
+20.5 +16.5 78 +24 +24 комфорт 1013.4 1011.6
03 17.09 В 3 10 км гроза, ливневой дождь 10/10 870 м
[Cb cap]
+20.0 +18.2 89 +23 +23 комфорт 1013.1 1011.3 +19.7 0.0
06 17.09 СВ 3 2000 м гроза, ливневой дождь 10/10 1410 м
[Cb cap]
+18.8 +18.3 97 +20 +20 1014.0 1012.2 +18.0
09 17.09 С 2 10 км слаб. ливневой дождь {гроза} 10/10 1080 м
[Cb cap]
+20.2 +18.6 91 +24 +24 комфорт 1013.8 1012.0
12 17.09 С 2 10 км {гроза, ливн. осадки} 10/9 400 м
[Cb cap Ac und]
+20.0 +18.4 91 +24 +24 комфорт 1014.3 1012.5
15 17.09 З 1 10 км 8/5 1110 м
[Cu Sc Ac trans]
+20.9 +16.6 76 +26 +26 душно 1014.6 1012.8 +21.3 44
18 17.09 В 1 4000 м 8/8 1140 м
[Sc]
+17.4 +16.4 94 +18 +18 1016.4 1014.6
21 17.09 СВ 4 4000 м 9/9 930 м
[Sc]
+17.3 +15.9 91 +17 +17 1017.1 1015.3
00 18.09 В 4 4000 м 4/4 1500 м
[Sc]
+16.4 +14.5 89 +16 +16 1017.1 1015.3
03 18.09 В 6 20 км ясно +15.8 +13.5 86 +14 +14 1016.8 1015.0 +15.1
06 18.09 СВ 5 20 км ясно +20.2 +13.0 63 +22 +25 комфорт 1017.3 1015.5
09 18.09 ЮВ 5 20 км 1/0
[Ac trans]
+23.8 +15.9 61 +27 +33 жарко 1016.6 1014.9
12 18.09 ЮВ 3 20 км ясно +24.8 +15.9 58 +28 +34 жарко 1015.4 1013.7
15 18.09 ЮВ 2 20 км ясно +24.1 +16.1 61 +27 +28 жарко 1014.5 1012.8 +25.3
18 18.09 СВ 4 4000 м ясно +19.7 +15.5 77 +22 +22 комфорт 1015.3 1013.5
21 18.09 СВ 4 4000 м ясно +18.4 +14.2 77 +19 +19 1015.7 1013.9
00 19.09 СВ 3 4000 м ясно +17.5 +12.8 74 +18 +18 1015.7 1013.9
03 19.09 СВ 2 20 км ясно +16.2 +13.1 82 +16 +16 1016.3 1014.5 +15.7
06 19.09 СЗ 1 20 км ясно +22.6 +15.2 63 +26 +32 жарко 1017.1 1015.4
09 19.09 З 5 20 км 8/0
[Ac trans]
+24.7 +18.4 68 +29 +32 душно 1017.6 1015.9
12 19.09 З 6 20 км 3/0
[Ac trans]
+24.3 +12.7 48 +26 +28 жарко 1017.6 1015.9
15 19.09 Ю 6 20 км 1/0
[Ac trans]
+22.0 +13.7 59 +25 +25 комфорт 1017.4 1015.7 +25.4
18 19.09 штиль 0 4000 м ясно +18.0 +15.2 84 +18 +18 1017.9 1016.1
21 19.09 штиль 0 4000 м 3/0
[Ac trans]
+16.4 +14.5 89 +16 +16 1017.0 1015.2
00 20.09 СВ 4 4000 м 6/1 600 м
[Sc Ac trans]
+17.0 +13.8 81 +17 +17 1016.1 1014.3
03 20.09 В 4 10 км 9/9 720 м
[Sc]
+17.8 +13.5 76 +18 +18 1014.7 1012.9 +15.5
06 20.09 СВ 4 20 км 9/3 600 м
[Cu hum Ac trans]
+20.6 +13.6 64 +23 +24 комфорт 1013.7 1011.9
09 20.09 Ю 2 20 км 9/1 600 м
[Cu med, cong Ac trans Ci fib]
+24.0 +17.6 67 +28 +34 душно 1011.4 1009.7
12 20.09 З 4 20 км 10/1 600 м
[Cu hum Ac trans Ci fib]
+24.6 +17.2 63 +28 +30 душно 1009.3 1007.6
15 20.09 З 3 10 км 10/4 600 м
[Cb cap Ac und]
+22.4 +16.9 71 +27 +27 душно 1008.8 1007.1 +25.6
18 20.09 С 1 4000 м {ливн. осадки} 10/0
[Ac und]
+21.6 +16.4 72 +25 +25 комфорт 1010.7 1009.0
21 20.09 СЗ 8-13
{13}
4000 м слаб. ливневой дождь 10/4 1500 м
[Cb cap Ac und]
+20.2 +10.3 53 +21 +21 комфорт 1011.4 1009.6
00 21.09 С 2
{14}
4000 м слаб. ливневой дождь 10/6 1410 м
[Cb cap Ac und]
+15.2 +13.4 89 +15 +15 1013.5 1011.7
03 21.09 С 1 20 км {ливн. осадки} 8/3 1000 м
[Cb cap Ac trans]
+14.5 +13.2 92 +15 +15 1013.7 1011.9 +14.3 4
06 21.09 СЗ 6-11
{12}
20 км {ливн. осадки} 6/1 1000 м
[Cu med, cong Ci fib]
+17.5 +4.8 43 +17 +18 1016.5 1014.7 +13.5
09 21.09 З 7-11
{13}
20 км 9/1 1000 м
[Cu med, cong Ac As]
+18.8 +5.0 40 +18 +20 1017.6 1015.8
12 21.09 СЗ 5
{13}
20 км 9/3 1000 м
[Cu hum Ac trans]
+17.6 +6.8 49 +17 +18 1019.0 1017.2
15 21.09 С 4
{11}
10 км слаб. ливневой дождь 10/10 1500 м
[Cb cap]
+13.6 +8.0 69 +12 +12 1020.9 1019.1 +19.7 0.0
18 21.09 СВ 3
{11}
4000 м гроза без осадков {ливн. осадки} 8/8 1500 м
[Cb cap]
+11.4 +9.8 90 +10 +10 1021.5 1019.7
21 21.09 С 3
{12}
4000 м {гроза, ливн. осадки} 9/1 1500 м
[Cb cap Ac As]
+9.9 +7.8 87 +8 +8 1023.1 1021.3
00 22.09 СВ 2
{12}
4000 м {гроза, ливн. осадки} 3/0
[Ac trans]
+8.7 +6.4 85 +7 +7 1023.5 1021.7

 

Местоположение метеостанции Сочи аэропорт (Адлер) (Краснодарский край, Россия): широта 43.43 долгота 39.90 высота над уровнем моря 15 м.

В архиве по умолчанию представлена погода в Сочи аэропорт (Адлере) за последнюю неделю. Архивные данные за месяц целиком и за предыдущие месяцы, начиная с января 2011 года, Вы можете получить, выбрав интересующий диапазон дат из раскрывающегося списка и нажав кнопку "Ввод!".


*Определитесь, кто Вы:
робот инопланетянин человек

Внимание! Время в таблицах - всемирное. Для получения местного времени необходимо прибавить поправку, которая равна 3 ч.

Смотрите также архив погоды в соседних городах и на ближайших метеорологических станциях:

Погода в Имеретинке (Краснодарский край, Россия) (5 км)
Погода в Сочи (Краснодарский край, Россия) (20 км)
Погода в Кепше (Краснодарский край, Россия) (24 км)
Погода в Красной Поляне (Краснодарский край, Россия) (37 км)
Погода в Горная Карусель 1500 (Краснодарский край, Россия) (40 км)
Погода в Горная Карусель 1000 (Краснодарский край, Россия) (40 км)
Погода на Кордоне Лаура (Краснодарский край, Россия) (44 км)
Погода в Солох Ауле (Краснодарский край, Россия) (47 км)
Погода в Кичмае (Краснодарский край, Россия) (54 км)
Погода в Гузерипле (Адыгея, Россия) (66 км)

Пояснения к столбцам:

Ветер - указаны скорость ветра в м/с - средняя за 10 мин, порывы в срок и между сроками (в фигурных скобках) и направление, откуда дует ветер: С - северный, СВ - северо-восточный, В - восточный, ЮВ - юго-восточный, Ю - южный, ЮЗ - юго-западный, З - западный, СЗ - северо-западный.
Видимость - горизонтальная дальность видимости в метрах или километрах. При видимости от 1 до 10 км при отсутствии осадков обычно наблюдается дымка, при ухудшении видимости до 1 км и менее - туман. В сухую погоду видимость может ухудшаться дымом, пылью или мглою.
Явления - указаны атмосферные явления, наблюдавшиеся в срок или в последний час перед сроком; фигурными скобками обозначены явления, наблюдавшиеся между сроками (за 1-3 часа до срока); квадратными скобками обозначены град или гололедные отложения с указанием их диаметра в мм.
Облачность - указаны через наклонную черту общая и нижняя облачность в баллах и высота нижней границы облаков в метрах; квадратными скобками обозначены формы облаков: Ci - перистые, Cs - перисто-слоистые, Cc - перисто-кучевые, Ac - высококучевые, As - высокослоистые, Sc - слоисто-кучевые, Ns - слоисто-дождевые, Cu - кучевые, Cb - кучево-дождевые. Подробнее классификацию облаков см. в Атласе облаков (PDF).
T - Температура воздуха - температура, измеренная на высоте 2 м над землей.
Td - Температура точки росы - температура, при понижении до которой содержащийся в воздухе водяной пар достигнет насыщения.
f - Относительная влажность воздуха - влажноcть воздуха, измеренная на высоте 2 м над землей.
Te - Эффективная температура - температура, которую ощущает одетый по сезону человек в тени. Характеристика душности погоды. При расчете учитывается влияние влажности воздуха и скорости ветра на теплоощущения человека.
Tes - Эффективная температура на солнце - температура, которую ощущает человек, с поправкой на солнечный нагрев. Характеристика знойности погоды. Зависит от высоты солнца над горизонтом, облачности и скорости ветра. Ночью, в пасмурную погоду, а также при ветре 12 м/с и более поправка равна нулю.
P - Атмосферное давление - приведенное к уровню моря атмосферное давление.
Po - Атмосферное давление - измеренное на уровне метеостанции атмосферное давление.
Tmin - Минимальная температура - минимум температуры воздуха на высоте 2 м над землей.
Tmax - Максимальная температура - максимум температуры воздуха на высоте 2 м над землей.
R - Количество осадков - Количество выпавших осадков за период времени, мм. При наведении курсора мыши на число - период времени, за который выпало указанное количество осадков.
R24 - Количество осадков - Количество выпавших осадков за 24 часа, мм.
S - Снежный покров - Высота снежного покрова, см. При наведении курсора мыши на число - состояние снежного покрова и степень покрытия местности в баллах.